STARLINK-32269 (60377 NORAD) Tracking and Keplerian Element Data

This shows tracking and keplerian element data for the satellite.

Feedback or suggestion? Click here.




ElementValue
Catalog60377
NameSTARLINK-32269
Epoch Orbit1197
Epoch Day286.42325069
Epoch Year2024
RAAN178.6877
Inclination53.1604
Eccentricity0.0001121
Argument of Perigee81.0492
Mean Anonmoly279.0639
Mean Motion15.39591743
Decay Rate-4.898E-05
L11 60377U 24138Y 24286.42325069 -.00004898 00000+0 -11265-3 0 9992
L22 60377 53.1604 178.6877 0001121 81.0492 279.0639 15.39591743 11978



Live tracking and technical data element details for STARLINK-32269 (NORAD 60377). STARLINK-32269 can be tracked NOW for your location showing map with azimuth and elevation plus other details from your city location.







IsCatalogInMostPopularTable: catalog: 60377, numindb: 7
Update: records affected: 1



GetName: 60377 STARLINK-32269

Hit Count: updated at: Wed, 04 Dec 2024 19:41:11 GMT